Time,TemperatureF,DewpointF,PressureIn,WindDirection,WindDirectionDegrees,WindSpeedMPH,WindSpeedGustMPH,Humidity,HourlyPrecipIn,Conditions,Clouds,dailyrainin,SoftwareType,DateUTC
2013-02-25 00:01:00,23.0,22.0,-100.00,NW,322,1.0,2.0,94,-99.99,,,0.00,,2013-02-25 05:01:00,
2013-02-25 00:32:00,23.0,22.0,-100.00,SE,139,1.0,2.0,94,0.00,,,0.00,,2013-02-25 05:32:00,
2013-02-25 00:42:00,23.0,22.0,-100.00,SE,139,1.0,2.0,94,0.00,,,0.00,,2013-02-25 05:42:00,
2013-02-25 00:52:00,23.0,22.0,-100.00,SE,139,1.0,2.0,94,0.00,,,0.00,,2013-02-25 05:52:00,
2013-02-25 01:02:00,23.0,22.0,-100.00,SE,139,1.0,2.0,94,0.00,,,0.00,,2013-02-25 06:02:00,
2013-02-25 01:32:00,24.0,23.0,-100.00,NNE,16,1.0,2.0,94,0.00,,,0.00,,2013-02-25 06:32:00,
2013-02-25 01:42:00,24.0,23.0,-100.00,NNE,16,1.0,2.0,94,0.00,,,0.00,,2013-02-25 06:42:00,
2013-02-25 01:52:00,24.0,23.0,-100.00,NNE,16,1.0,2.0,94,0.00,,,0.00,,2013-02-25 06:52:00,
2013-02-25 02:01:00,24.0,23.0,-100.00,NNE,16,1.0,2.0,94,0.00,,,0.00,,2013-02-25 07:01:00,
2013-02-25 02:32:00,23.0,22.0,-100.00,NNE,26,2.0,4.0,94,0.00,,,0.00,,2013-02-25 07:32:00,
2013-02-25 02:42:00,23.0,22.0,-100.00,NNE,26,2.0,4.0,94,0.00,,,0.00,,2013-02-25 07:42:00,
2013-02-25 02:52:00,23.0,22.0,-100.00,NNE,26,2.0,4.0,94,0.00,,,0.00,,2013-02-25 07:52:00,
2013-02-25 03:01:00,23.0,22.0,-100.00,NNE,26,2.0,4.0,94,0.00,,,0.00,,2013-02-25 08:01:00,
2013-02-25 03:32:00,23.0,21.0,-100.00,SSE,160,1.0,4.0,93,0.00,,,-99.99,,2013-02-25 08:32:00,
2013-02-25 03:42:00,23.0,21.0,-100.00,SSE,160,1.0,4.0,93,0.00,,,-99.99,,2013-02-25 08:42:00,
2013-02-25 03:52:00,23.0,21.0,-100.00,SSE,160,1.0,4.0,93,0.00,,,-99.99,,2013-02-25 08:52:00,
2013-02-25 04:01:00,23.0,21.0,-100.00,SSE,160,1.0,4.0,93,0.00,,,-99.99,,2013-02-25 09:01:00,
2013-02-25 04:32:00,23.0,22.0,-100.00,North,9,0.0,0.0,94,0.00,,,0.00,,2013-02-25 09:32:00,
2013-02-25 04:42:00,23.0,22.0,-100.00,North,9,0.0,0.0,94,0.00,,,0.00,,2013-02-25 09:42:00,
2013-02-25 04:52:00,23.0,22.0,-100.00,North,9,0.0,0.0,94,0.00,,,0.00,,2013-02-25 09:52:00,
2013-02-25 05:01:00,23.0,22.0,-100.00,North,9,0.0,0.0,94,0.00,,,0.00,,2013-02-25 10:01:00,
2013-02-25 05:21:00,23.0,22.0,-100.00,East,88,1.0,2.0,94,0.00,,,0.00,,2013-02-25 10:21:00,
2013-02-25 05:32:00,23.0,22.0,-100.00,East,88,1.0,2.0,94,0.00,,,0.00,,2013-02-25 10:32:00,
2013-02-25 05:42:00,23.0,22.0,-100.00,East,88,1.0,2.0,94,0.00,,,0.00,,2013-02-25 10:42:00,
2013-02-25 05:52:00,23.0,22.0,-100.00,East,88,1.0,2.0,94,0.00,,,0.00,,2013-02-25 10:52:00,
2013-02-25 06:01:00,23.0,22.0,-100.00,East,88,1.0,2.0,94,0.00,,,0.00,,2013-02-25 11:01:00,
2013-02-25 06:22:00,24.0,23.0,-100.00,NE,37,1.0,2.0,94,0.00,,,0.00,,2013-02-25 11:22:00,
2013-02-25 06:32:00,24.0,23.0,-100.00,NE,37,1.0,2.0,94,0.00,,,0.00,,2013-02-25 11:32:00,
2013-02-25 06:42:00,24.0,23.0,-100.00,NE,37,1.0,2.0,94,0.00,,,0.00,,2013-02-25 11:42:00,
2013-02-25 06:52:00,24.0,23.0,-100.00,NE,37,1.0,2.0,94,0.00,,,0.00,,2013-02-25 11:52:00,
2013-02-25 07:02:00,24.0,23.0,-100.00,NE,37,1.0,2.0,94,0.00,,,0.00,,2013-02-25 12:02:00,
2013-02-25 07:22:00,24.0,23.0,-100.00,NNW,327,0.0,2.0,94,0.00,,,0.00,,2013-02-25 12:22:00,
2013-02-25 07:32:00,24.0,23.0,-100.00,NNW,327,0.0,2.0,94,0.00,,,0.00,,2013-02-25 12:32:00,
2013-02-25 07:42:00,24.0,23.0,-100.00,NNW,327,0.0,2.0,94,0.00,,,0.00,,2013-02-25 12:42:00,
2013-02-25 07:55:00,24.0,23.0,-100.00,NNW,327,0.0,2.0,94,0.00,,,0.00,,2013-02-25 12:55:00,
2013-02-25 08:02:00,24.0,23.0,-100.00,NNW,327,0.0,2.0,94,0.00,,,0.00,,2013-02-25 13:02:00,
2013-02-25 08:23:00,24.0,23.0,-100.00,NE,34,1.0,3.0,94,0.00,,,0.00,,2013-02-25 13:23:00,
2013-02-25 08:32:00,24.0,23.0,-100.00,NE,34,1.0,3.0,94,0.00,,,0.00,,2013-02-25 13:32:00,
2013-02-25 08:42:00,24.0,23.0,-100.00,NE,34,1.0,3.0,94,0.00,,,0.00,,2013-02-25 13:42:00,
2013-02-25 08:52:00,24.0,23.0,-100.00,NE,34,1.0,3.0,94,0.00,,,0.00,,2013-02-25 13:52:00,
2013-02-25 09:03:00,24.0,23.0,-100.00,NE,34,1.0,3.0,94,0.00,,,0.00,,2013-02-25 14:03:00,
2013-02-25 09:32:00,24.0,23.0,-100.00,NNE,25,0.0,4.0,94,0.00,,,0.00,,2013-02-25 14:32:00,
2013-02-25 09:42:00,24.0,23.0,-100.00,NNE,25,0.0,4.0,94,0.00,,,0.00,,2013-02-25 14:42:00,
2013-02-25 09:52:00,24.0,23.0,-100.00,NNE,25,0.0,4.0,94,0.00,,,0.00,,2013-02-25 14:52:00,
2013-02-25 10:02:00,24.0,23.0,-100.00,NNE,25,0.0,4.0,94,0.00,,,0.00,,2013-02-25 15:02:00,
2013-02-25 10:22:00,26.0,25.0,-100.00,SE,143,2.0,3.0,94,0.00,,,0.00,,2013-02-25 15:22:00,
2013-02-25 10:32:00,26.0,25.0,-100.00,SE,143,2.0,3.0,94,0.00,,,0.00,,2013-02-25 15:32:00,
2013-02-25 10:42:00,26.0,25.0,-100.00,SE,143,2.0,3.0,94,0.00,,,0.00,,2013-02-25 15:42:00,
2013-02-25 10:52:00,26.0,25.0,-100.00,SE,143,2.0,3.0,94,0.00,,,0.00,,2013-02-25 15:52:00,
2013-02-25 11:02:00,26.0,25.0,-100.00,SE,143,2.0,3.0,94,0.00,,,0.00,,2013-02-25 16:02:00,
2013-02-25 11:32:00,29.0,26.0,-100.00,SSW,192,5.0,7.0,89,0.00,,,-99.99,,2013-02-25 16:32:00,
2013-02-25 11:42:00,29.0,26.0,-100.00,SSW,192,5.0,7.0,89,0.00,,,-99.99,,2013-02-25 16:42:00,
2013-02-25 11:52:00,29.0,26.0,-100.00,SSW,192,5.0,7.0,89,0.00,,,-99.99,,2013-02-25 16:52:00,
2013-02-25 12:01:00,29.0,26.0,-100.00,SSW,192,5.0,7.0,89,0.00,,,-99.99,,2013-02-25 17:01:00,
2013-02-25 12:32:00,31.0,27.0,-100.00,South,179,4.0,9.0,85,0.00,,,0.00,,2013-02-25 17:32:00,
2013-02-25 12:42:00,31.0,27.0,-100.00,South,179,4.0,9.0,85,0.00,,,0.00,,2013-02-25 17:42:00,
2013-02-25 12:52:00,31.0,27.0,-100.00,South,179,4.0,9.0,85,0.00,,,0.00,,2013-02-25 17:52:00,
2013-02-25 13:01:00,31.0,27.0,-100.00,South,179,4.0,9.0,85,0.00,,,0.00,,2013-02-25 18:01:00,
2013-02-25 13:33:00,35.0,27.0,-100.00,SSW,195,6.0,10.0,73,0.00,,,0.00,,2013-02-25 18:33:00,
2013-02-25 13:42:00,35.0,27.0,-100.00,SSW,195,6.0,10.0,73,0.00,,,0.00,,2013-02-25 18:42:00,
2013-02-25 13:52:00,35.0,27.0,-100.00,SSW,195,6.0,10.0,73,0.00,,,0.00,,2013-02-25 18:52:00,
2013-02-25 14:01:00,35.0,27.0,-100.00,SSW,195,6.0,10.0,73,0.00,,,0.00,,2013-02-25 19:01:00,
2013-02-25 14:32:00,32.0,23.0,-100.00,South,179,10.0,15.0,70,0.00,,,0.00,,2013-02-25 19:32:00,
2013-02-25 14:42:00,32.0,23.0,-100.00,South,179,10.0,15.0,70,0.00,,,0.00,,2013-02-25 19:42:00,
2013-02-25 14:52:00,32.0,23.0,-100.00,South,179,10.0,15.0,70,0.00,,,0.00,,2013-02-25 19:52:00,
2013-02-25 15:01:00,32.0,23.0,-100.00,South,179,10.0,15.0,70,0.00,,,0.00,,2013-02-25 20:01:00,
2013-02-25 15:22:00,33.0,24.0,-100.00,South,182,7.0,12.0,68,0.00,,,0.00,,2013-02-25 20:22:00,
2013-02-25 15:32:00,33.0,24.0,-100.00,South,182,7.0,12.0,68,0.00,,,0.00,,2013-02-25 20:32:00,
2013-02-25 15:42:00,33.0,24.0,-100.00,South,182,7.0,12.0,68,0.00,,,0.00,,2013-02-25 20:42:00,
2013-02-25 15:52:00,33.0,24.0,-100.00,South,182,7.0,12.0,68,0.00,,,0.00,,2013-02-25 20:52:00,
2013-02-25 16:01:00,33.0,24.0,-100.00,South,182,7.0,12.0,68,0.00,,,0.00,,2013-02-25 21:01:00,
2013-02-25 16:32:00,32.0,25.0,-100.00,South,188,6.0,12.0,75,0.00,,,0.00,,2013-02-25 21:32:00,
2013-02-25 16:42:00,32.0,25.0,-100.00,South,188,6.0,12.0,75,0.00,,,0.00,,2013-02-25 21:42:00,
2013-02-25 16:52:00,32.0,25.0,-100.00,South,188,6.0,12.0,75,0.00,,,0.00,,2013-02-25 21:52:00,
2013-02-25 17:01:00,32.0,25.0,-100.00,South,188,6.0,12.0,75,0.00,,,0.00,,2013-02-25 22:01:00,
2013-02-25 17:32:00,33.0,24.0,-100.00,SW,221,5.0,10.0,70,0.00,,,0.00,,2013-02-25 22:32:00,
2013-02-25 17:42:00,33.0,24.0,-100.00,SW,221,5.0,10.0,70,0.00,,,0.00,,2013-02-25 22:42:00,
2013-02-25 17:52:00,33.0,24.0,-100.00,SW,221,5.0,10.0,70,0.00,,,0.00,,2013-02-25 22:52:00,
2013-02-25 18:01:00,33.0,24.0,-100.00,SW,221,5.0,10.0,70,0.00,,,0.00,,2013-02-25 23:01:00,
2013-02-25 18:32:00,32.0,25.0,-100.00,South,185,5.0,9.0,75,0.00,,,0.00,,2013-02-25 23:32:00,
2013-02-25 18:42:00,32.0,25.0,-100.00,South,185,5.0,9.0,75,0.00,,,0.00,,2013-02-25 23:42:00,
2013-02-25 18:52:00,32.0,25.0,-100.00,South,185,5.0,9.0,75,0.00,,,0.00,,2013-02-25 23:52:00,
2013-02-25 19:01:00,32.0,25.0,-100.00,South,185,5.0,9.0,75,0.00,,,0.00,,2013-02-26 00:01:00,
2013-02-25 19:22:00,31.0,24.0,-100.00,South,188,4.0,8.0,75,0.00,,,0.00,,2013-02-26 00:22:00,
2013-02-25 19:32:00,31.0,24.0,-100.00,South,188,4.0,8.0,75,0.00,,,0.00,,2013-02-26 00:32:00,
2013-02-25 19:42:00,31.0,24.0,-100.00,South,188,4.0,8.0,75,0.00,,,0.00,,2013-02-26 00:42:00,
2013-02-25 19:52:00,31.0,24.0,-100.00,South,188,4.0,8.0,75,0.00,,,0.00,,2013-02-26 00:52:00,
2013-02-25 20:02:00,31.0,24.0,-100.00,South,188,4.0,8.0,75,0.00,,,0.00,,2013-02-26 01:02:00,
2013-02-25 20:32:00,29.0,24.0,-100.00,SSE,161,2.0,6.0,81,0.00,,,0.00,,2013-02-26 01:32:00,
2013-02-25 20:42:00,29.0,24.0,-100.00,SSE,161,2.0,6.0,81,0.00,,,0.00,,2013-02-26 01:42:00,
2013-02-25 20:52:00,29.0,24.0,-100.00,SSE,161,2.0,6.0,81,0.00,,,0.00,,2013-02-26 01:52:00,
2013-02-25 21:01:00,29.0,24.0,-100.00,SSE,161,2.0,6.0,81,0.00,,,0.00,,2013-02-26 02:01:00,
2013-02-25 21:32:00,29.0,25.0,-100.00,South,190,0.0,5.0,85,0.00,,,0.00,,2013-02-26 02:32:00,
2013-02-25 21:42:00,29.0,25.0,-100.00,South,190,0.0,5.0,85,0.00,,,0.00,,2013-02-26 02:42:00,
2013-02-25 21:52:00,29.0,25.0,-100.00,South,190,0.0,5.0,85,0.00,,,0.00,,2013-02-26 02:52:00,
2013-02-25 22:02:00,29.0,25.0,-100.00,South,190,0.0,5.0,85,0.00,,,0.00,,2013-02-26 03:02:00,
2013-02-25 22:22:00,28.0,25.0,-100.00,NNE,28,1.0,2.0,88,0.00,,,0.00,,2013-02-26 03:22:00,
2013-02-25 22:32:00,28.0,25.0,-100.00,NNE,28,1.0,2.0,88,0.00,,,0.00,,2013-02-26 03:32:00,
2013-02-25 22:42:00,28.0,25.0,-100.00,NNE,28,1.0,2.0,88,0.00,,,0.00,,2013-02-26 03:42:00,
2013-02-25 22:52:00,28.0,25.0,-100.00,NNE,28,1.0,2.0,88,0.00,,,0.00,,2013-02-26 03:52:00,
2013-02-25 23:01:00,28.0,25.0,-100.00,NNE,28,1.0,2.0,88,0.00,,,0.00,,2013-02-26 04:01:00,
2013-02-25 23:32:00,27.0,24.0,-100.00,SSE,149,3.0,4.0,89,0.00,,,0.00,,2013-02-26 04:32:00,
2013-02-25 23:42:00,27.0,24.0,-100.00,SSE,149,3.0,4.0,89,0.00,,,0.00,,2013-02-26 04:42:00,
2013-02-25 23:52:00,27.0,24.0,-100.00,SSE,149,3.0,4.0,89,0.00,,,0.00,,2013-02-26 04:52:00,